Regional Weather Roundup
Issued by NWS

Home | Current Version | Previous Version | Text Only | Print | Product List | Glossary On
Versions: 1 2 3 4 5 6 7 8 9 10 11 12 13 14 15 16 17 18 19 20 21 22 23 24 25 26 27 28 29 30 31 32 33 34 35 36 37 38 39 40 41 42 43 44 45 46 47 48 49 50
000
ASUS43 KLMK 151102
RWRKY
KENTUCKY REGIONAL WEATHER ROUNDUP
NATIONAL WEATHER SERVICE LOUISVILLE KY
700 AM EDT TUE APR 15 2014

NOTE "FAIR" INDICATES FEW OR NO CLOUDS BELOW 12,000 FEET
WITH NO SIGNIFICANT WEATHER AND/OR OBSTRUCTIONS TO VISIBILITY.

KYZ001>023-026-027-061>063-070>075-151200-
WESTERN AND SOUTH CENTRAL KENTUCKY

CITY           SKY/WX    TMP DP  RH WIND       PRES   REMARKS
PADUCAH        CLEAR     35  24  64 NW8       30.10R WCI  29
HENDERSON      PTCLDY    28  27  93 NW12      30.05R WCI  18
OWENSBORO      CLOUDY    35  28  76 N14       30.04R WCI  26
HOPKINSVILLE   CLOUDY    36  33  88 NW10      30.04R WCI  28
BOWLING GREEN  CLOUDY    37  33  85 NW10      30.00R WCI  30
GLASGOW        NOT AVBL
$$

KYZ024-025-028>034-038-045-046-053-151200-
NORTH CENTRAL KENTUCKY

CITY           SKY/WX    TMP DP  RH WIND       PRES   REMARKS
LOUISVILLE/SDF CLOUDY    36  31  82 N13       29.97R WCI  27
LOUISVILLE/LOU CLOUDY    38  30  73 N8        29.97R WCI  32
FORT KNOX      MIX PCPN  36  34  93 NW10      29.94R WCI  28
$$

KYZ035>037-039>044-047>052-055>060-089>105-151200-
NORTHEAST KENTUCKY

CITY           SKY/WX    TMP DP  RH WIND       PRES   REMARKS
LEXINGTON      LGT SNOW  33  31  92 NW8       29.92R FOG     WCI  26
COVINGTON      FLURRIES  33  29  85 NW17      29.91R WCI  22
FRANKFORT      CLOUDY    33  31  92 W7        29.94R WCI  27
$$

KYZ054-064>069-076>088-106>120-151200-
SOUTHEAST KENTUCKY

CITY           SKY/WX    TMP DP  RH WIND       PRES   REMARKS
JACKSON        CLOUDY    37  34  89 VRB6      29.84R WCI  32
LONDON         LGT RAIN  38  35  89 NW7       29.88R FOG     WCI  33
SOMERSET       NOT AVBL
MIDDLESBORO    NOT AVBL
MONTICELLO     LGT SNOW  34  33  96 NW12      29.95R FOG     WCI  25
$$




USA.gov is the U.S. government's official web portal to all federal, state and local government web resources and services.